Regional Weather Roundup
Issued by NWS

Home | Current Version | Previous Version | Graphics & Text | Print | Product List | Glossary On
Versions: 1 2 3 4 5 6 7 8 9 10 11 12 13 14 15 16 17 18 19 20 21 22 23 24 25 26 27 28 29 30 31 32 33 34 35 36 37 38 39 40 41 42 43 44 45 46 47 48 49 50
000
ASUS43 KFSD 060702
RWRSD

WEATHER ROUNDUP FOR SOUTH DAKOTA
NATIONAL WEATHER SERVICE SIOUX FALLS SD
200 AM CDT FRI MAY 06 2016

NOTE: "FAIR" INDICATES FEW OR NO CLOUDS BELOW 12,000 FEET WITH NO
SIGNIFICANT WEATHER AND/OR OBSTRUCTIONS TO VISIBILITY.


SDZ001>005-009-010-012>017-060800-
NORTHWEST AND NORTH CENTRAL SOUTH DAKOTA

CITY           SKY/WX    TMP DP  RH WIND       PRES   REMARKS
BUFFALO          N/A     65  41  41 W7        29.80R
FAITH            N/A     67  39  35 SE8       29.83S
MOBRIDGE       CLEAR     61  50  67 SE8       29.77F
$$

SDZ012>016-024>037-041>051-057-063-072>074-060800-
SOUTHWEST AND SOUTH CENTRAL SOUTH DAKOTA

CITY           SKY/WX    TMP DP  RH WIND       PRES   REMARKS
RAPID CTY ARPT CLOUDY    53  43  68 NW6       29.87F
PIERRE         CLEAR     62  49  62 SW7       29.80R
CUSTER         CLOUDY    52  33  48 NW5       30.03S
ELLSWORTH AFB  CLEAR     59  42  54 W8        29.87S
PHILIP         PTCLDY    59  47  64 W3        29.84R
PINE RIDGE     CLOUDY    65  45  48 S18G26    29.92S
WINNER         LGT RAIN  70  47  43 S20G32    29.86S
$$

SDZ004>011-016>023-039-040-060800-
NORTHEAST SOUTH DAKOTA

CITY           SKY/WX    TMP DP  RH WIND       PRES   REMARKS
ABERDEEN       CLEAR     60  46  59 S12       29.81F
WATERTOWN      CLEAR     57  44  62 SE9       29.89S
BROOKINGS      CLEAR     58  44  60 S10       29.91S
SISSETON         N/A     71  39  31 SW20G29   29.81F
$$

SDZ017-020-022-023-036>040-048>070-060800-
SOUTHEAST SOUTH DAKOTA

CITY           SKY/WX    TMP DP  RH WIND       PRES   REMARKS
SIOUX FALLS    CLEAR     61  43  51 SW9       29.92F
HURON          CLEAR     61  47  59 S12       29.85F
MITCHELL       CLEAR     61  49  64 S12       29.88F
YANKTON        CLEAR     64  41  42 S9        29.92F
$$

ABBREVIATIONS USED IN REMARKS
   TC - TEMPERATURE IN CELSIUS
  WCI - WIND CHILL INDEX
   HX - HEAT INDEX
  VSB - VISIBILITY





USA.gov is the U.S. government's official web portal to all federal, state and local government web resources and services.